EW5980 Weather Reports


time (UTC)temp
F
wind
direction
speed
knots
gust
knots
rain 1hr
in
rain 24hr
in
rain mn
in
humidity
%
barometer
mb
20260508041607 62 0.0 0.0 0.00 0.00 0.00 23 1016.0
20260508040105 62 0.0 0.0 0.00 0.00 0.00 27 1016.4
20260508034543 62 0.0 0.0 0.00 0.00 0.00 31 1016.3
20260508033042 62 0.0 0.0 0.00 0.00 0.00 37 1016.6
20260508031542 63 0.0 0.0 0.00 0.00 0.00 46 1016.3
20260508030040 63 0.0 0.0 0.00 0.00 0.00 50 1016.2
20260508024543 63 0.0 0.0 0.00 0.00 0.00 52 1016.2
20260508023045 64 0.0 0.0 0.00 0.00 0.00 56 1016.2
20260508021543 64 0.0 0.0 0.00 0.00 0.00 56 1015.9
20260508020047 65 0.0 0.0 0.00 0.00 0.00 61 1015.8
20260508014541 65 0.0 0.0 0.00 0.00 0.00 67 1015.5
20260508013045 66 0.0 0.0 0.00 0.00 0.00 69 1015.8
20260508011553 66 0.0 0.0 0.00 0.00 0.00 70 1015.1
20260508010041 67 0.0 0.0 0.00 0.00 0.00 71 1015.2
20260508004543 67 0.0 0.0 0.00 0.00 0.00 71 1015.4
20260508003040 68 0.0 0.0 0.00 0.00 0.00 71 1015.7
20260508001541 68 0.0 0.0 0.00 0.00 0.00 71 1015.0
20260508000045 69 0.0 0.0 0.00 0.00 0.00 71 1015.2
20260507234542 70 0.0 0.0 0.00 0.00 0.00 71 1015.1
20260507233056 70 0.0 0.0 0.00 0.00 0.00 71 1015.0
20260507231539 71 0.0 0.0 0.00 0.00 0.00 70 1015.0
20260507230043 71 0.0 0.0 0.00 0.00 0.00 71 1014.9
20260507224553 71 0.0 0.0 0.00 0.00 0.00 69 1015.1
20260507223041 71 0.0 0.0 0.00 0.00 0.00 70 1015.3
20260507221547 71 0.0 0.0 0.00 0.00 0.00 69 1015.2
20260507220045 71 0.0 0.0 0.00 0.00 0.00 70 1015.1
20260507214543 71 0.0 0.0 0.00 0.00 0.00 70 1015.4
20260507213053 71 0.0 0.0 0.00 0.00 0.00 70 1015.1
20260507211541 71 0.0 0.0 0.00 0.00 0.00 70 1015.2
20260507210048 71 0.0 0.0 0.00 0.00 0.00 70 1015.4
20260507204540 71 0.0 0.0 0.00 0.00 0.00 70 1015.2
20260507203043 71 0.0 0.0 0.00 0.00 0.00 70 1015.3
20260507201544 70 0.0 0.0 0.00 0.00 0.00 70 1015.4
20260507200040 69 0.0 0.0 0.00 0.00 0.00 70 1015.6
20260507194610 68 0.0 0.0 0.00 0.00 0.00 67 1015.8
20260507193045 67 0.0 0.0 0.00 0.00 0.00 67 1015.8
20260507191543 66 0.0 0.0 0.00 0.00 0.00 66 1016.0
20260507190049 65 0.0 0.0 0.00 0.00 0.00 57 1016.0
20260507184541 64 0.0 0.0 0.00 0.00 0.00 54 1016.4
20260507183045 64 0.0 0.0 0.00 0.00 0.00 49 1016.7
20260507181551 63 0.0 0.0 0.00 0.00 0.00 50 1016.7
20260507180045 63 0.0 0.0 0.00 0.00 0.00 51 1016.5
20260507174554 63 0.0 0.0 0.00 0.00 0.00 47 1016.9
20260507173108 63 0.0 0.0 0.00 0.00 0.00 43 1016.7
20260507171547 63 0.0 0.0 0.00 0.00 0.00 48 1017.0
20260507170058 63 0.0 0.0 0.00 0.00 0.00 45 1017.1
20260507164550 63 0.0 0.0 0.00 0.00 0.00 42 1017.2
20260507163051 63 0.0 0.0 0.00 0.00 0.00 41 1017.1
20260507161558 63 0.0 0.0 0.00 0.00 0.00 41 1016.9
20260507160042 62 0.0 0.0 0.00 0.00 0.00 40 1016.5
20260507154543 62 0.0 0.0 0.00 0.00 0.00 32 1016.5
20260507153056 62 0.0 0.0 0.00 0.00 0.00 30 1016.5
20260507151546 62 0.0 0.0 0.00 0.00 0.00 28 1016.8
20260507150050 61 0.0 0.0 0.00 0.00 0.00 25 1016.8
20260507144547 61 0.0 0.0 0.00 0.00 0.00 23 1016.6
20260507143043 61 0.0 0.0 0.00 0.00 0.00 22 1016.5
20260507141551 61 0.0 0.0 0.00 0.00 0.00 22 1016.4
20260507140048 60 0.0 0.0 0.00 0.00 0.00 13 1016.2
20260507134545 60 0.0 0.0 0.00 0.00 0.00 12 1016.0
20260507133042 59 0.0 0.0 0.00 0.00 0.00 10 1016.0
20260507131542 59 0.0 0.0 0.00 0.00 0.00 11 1015.8
20260507130042 58 0.0 0.0 0.00 0.00 0.00 10 1015.8
20260507124549 58 0.0 0.0 0.00 0.00 0.00 9 1015.9
20260507123048 58 0.0 0.0 0.00 0.00 0.00 8 1015.7
20260507121545 58 0.0 0.0 0.00 0.00 0.00 7 1015.7
20260507120050 58 0.0 0.0 0.00 0.00 0.00 7 1015.0
20260507114544 58 0.0 0.0 0.00 0.00 0.00 7 1014.6
20260507113047 58 0.0 0.0 0.00 0.00 0.00 5 1015.0
20260507111540 58 0.0 0.0 0.00 0.00 0.00 5 1014.9
20260507110038 58 0.0 0.0 0.00 0.00 0.00 5 1014.5
20260507104545 58 0.0 0.0 0.00 0.00 0.00 5 1014.3
20260507103043 58 0.0 0.0 0.00 0.00 0.00 5 1014.2
20260507101542 58 0.0 0.0 0.00 0.00 0.00 4 1014.3
20260507100041 58 0.0 0.0 0.00 0.00 0.00 4 1014.2
20260507094539 59 0.0 0.0 0.00 0.00 0.00 4 1013.6
20260507093046 59 0.0 0.0 0.00 0.00 0.00 4 1013.5
20260507091546 59 0.0 0.0 0.00 0.00 0.00 4 1013.1
20260507090045 59 0.0 0.0 0.00 0.00 0.00 4 1013.1
20260507084548 59 0.0 0.0 0.00 0.00 0.00 4 1013.2
20260507083039 60 0.0 0.0 0.00 0.00 0.00 3 1013.4
20260507081547 60 0.0 0.0 0.00 0.00 0.00 2 1013.2
20260507080053 60 0.0 0.0 0.00 0.00 0.00 1 1013.0
20260507074541 60 0.0 0.0 0.00 0.00 0.00 2 1013.2
20260507073043 60 0.0 0.0 0.00 0.00 0.00 1 1013.2
20260507071546 60 0.0 0.0 0.00 0.00 0.00 1 1013.2
20260507070045 60 0.0 0.0 0.00 0.00 0.00 1 1013.4
20260507064559 61 0.0 0.0 0.00 0.00 0.00 1 1013.5
20260507063047 61 0.0 0.0 0.00 0.00 0.00 1 1013.3
20260507061542 61 0.0 0.0 0.00 0.00 0.00 2 1013.2
20260507060038 61 0.0 0.0 0.00 0.00 0.00 2 1013.5
20260507054546 62 0.0 0.0 0.00 0.00 0.00 2 1013.3
20260507053043 62 0.0 0.0 0.00 0.00 0.00 1 1012.9
20260507051542 62 0.0 0.0 0.00 0.00 0.00 100 1012.8
20260507050042 63 0.0 0.0 0.00 0.00 0.00 100 1012.7
20260507044540 63 0.0 0.0 0.00 0.00 0.00 100 1012.4
20260507043049 64 0.0 0.0 0.00 0.00 0.00 100 1012.3